Regional Weather Roundup
Issued by NWS

Home | Current Version | Previous Version | Graphics & Text | Print | Product List | Glossary On
Versions: 1 2 3 4 5 6 7 8 9 10 11 12 13 14 15 16 17 18 19 20 21 22 23 24 25 26 27 28 29 30 31 32 33 34 35 36 37 38 39 40 41 42 43 44 45 46 47 48 49 50
000
ASUS43 KDTX 291301
RWRMI
MICHIGAN HOURLY REGIONAL WEATHER ROUNDUP
NATIONAL WEATHER SERVICE DETROIT/PONTIAC MI
900 AM EDT MON MAY 29 2017

NOTE: "FAIR" INDICATES FEW OR NO CLOUDS BELOW 12,000 FEET WITH NO
SIGNIFICANT WEATHER AND/OR OBSTRUCTION TO VISIBILITY.

MIZ047>049-052>055-059>063-066>070-074>076-081>083-291400-
SOUTHEAST LOWER MICHIGAN

CITY           SKY/WX    TMP DP  RH WIND       PRES   REMARKS
ADRIAN         PTSUNNY   62  56  80 W5        29.84R
ALMA           SUNNY     64  51  64 SW6       29.75F
ANN ARBOR      SUNNY     64  58  80 S7        29.81S
BAD AXE        SUNNY     62  55  78 SW8       29.75S
CARO           SUNNY     62  57  83 S7        29.75F
DETROIT CITY   SUNNY     64  55  72 W9        29.81R
DETROIT        MOSUNNY   65  56  72 SW8       29.83R
FLINT          SUNNY     63  54  72 SW13      29.78S
GROSSE ILE     SUNNY     64  56  73 W6        29.81S
HILLSDALE      CLOUDY    63  54  72 S3        29.82F
HOWELL         SUNNY     64  52  66 SW5       29.80S

CITY           SKY/WX    TMP DP  RH WIND       PRES   REMARKS
JACKSON        SUNNY     66  53  63 S8        29.81S
LAMBERTVILLE   PTSUNNY   64  56  74 SW6       29.83S
LANSING        SUNNY     67  50  54 SW8       29.78F
LAPEER         FAIR      64  54  71 SW7       29.78S
MASON          SUNNY     64  53  68 SW7       29.79F
MONROE         MOSUNNY   65  57  74 SW7       29.82S
MT. CLEMENS    SUNNY     66  59  78 SW9       29.79R
PONTIAC        MOSUNNY   62  55  77 SW8       29.80R
PORT HOPE        N/A     64  57  78 VRB6      29.72R
PORT HURON     SUNNY     63  55  77 SW5       29.79R
TRI CITIES     SUNNY     63  54  72 SW13      29.75S
MIDLAND        FAIR      64  52  65 SW8       29.74S
TROY           SUNNY     64  54  70 SW7       29.82S
SAGINAW HB     SUNNY     64  50  59 SW12      29.75S
$$
MIZ043>046-050>051-056>058-064>065-071>073-077>080-291400-
SOUTHWEST LOWER MICHIGAN

CITY           SKY/WX    TMP DP  RH WIND       PRES   REMARKS
BATTLE CREEK   SUNNY     66  53  63 SW8       29.79F
BENTON HARBOR  SUNNY     66  52  60 SW12      29.79S
BIG RAPIDS     SUNNY     60  51  71 CALM      29.73F
COLDWATER      PTSUNNY   64  55  73 S5        29.81F
FREMONT        FAIR      60  51  71 S5        29.73F
HOLLAND        SUNNY     67  52  58 SW12      29.76F
GRAND RAPIDS   MOSUNNY   65  52  62 SW12      29.75F
IONIA          FAIR      65  50  57 SW12      29.75F
KALAMAZOO      SUNNY     66  52  60 SW10      29.79F
LUDINGTON      SUNNY     60  51  71 SW7       29.70F
MARSHALL       SUNNY     65  53  64 S3        29.79F
MOUNT PLEASANT SUNNY     63  50  61 W5        29.73F
MUSKEGON       MOSUNNY   64  47  53 W15G23    29.73F
SOUTH HAVEN    SUNNY     67  53  60 SW13      29.77F
$$
MIZ016>042-291400-
NORTHERN LOWER MICHIGAN

CITY           SKY/WX    TMP DP  RH WIND       PRES   REMARKS
ALPENA         SUNNY     62  54  74 SW5       29.69R
BEAVER ISLAND  MOSUNNY   52  52  99 SW10      29.65F
BELLAIRE       MOSUNNY   58  50  74 SW3       29.69S
CADILLAC       SUNNY     58  50  73 SW6       29.71S
CHARLEVOIX     SUNNY     58  52  80 SW8       29.70S
FRANKFORT      RAIN      55  48  75 CALM      29.70R
GAYLORD        SUNNY     58  48  69 W10       29.70R
GRAYLING       MOSUNNY   60  49  68 W7        29.71S
HARBOR SPRINGS SUNNY     55  53  90 SW3       29.68S
HOUGHTON LAKE  SUNNY     60  50  69 SW6       29.73R
MANISTEE       MOSUNNY   60  51  72 SW6       29.69F
OSCODA         SUNNY     64  54  71 W10       29.70S
PELLSTON       SUNNY     58  51  78 SW9       29.67R
ROGERS CITY    MOSUNNY   53  52  97 CALM      29.68S FOG
TRAVERSE CITY  MOSUNNY   61  48  62 SW6       29.67F
$$
MIZ007>008-015-291400-
EASTERN UPPER MICHIGAN

CITY           SKY/WX    TMP DP  RH WIND       PRES   REMARKS
KINROSS        CLOUDY    53  53 100 S8        29.66S FOG
MACKINAC ISLAN FOG       51  51 100 S3        29.67R VSB 1/2
NEWBERRY       FOG       48  47  97 S6        29.64R VSB 1
S. S. MARIE    CLOUDY    56  54  93 S5        29.64R
MUNISING         N/A     55  52  89 SW8       29.60S
$$
MIZ004>006-011>014-085-291400-
CENTRAL UPPER MICHIGAN

CITY           SKY/WX    TMP DP  RH WIND       PRES   REMARKS
MANISTIQUE     FOG       49  46  90 S7        29.64R VSB 1/4
ESCANABA       CLOUDY    55  51  86 W8        29.64S
SAWYER-GWINN   CLOUDY    52  48  87 SW8       29.62R
$$
MIZ001>003-009>011-084-291400-
WESTERN UPPER MICHIGAN

CITY           SKY/WX    TMP DP  RH WIND       PRES   REMARKS
IRON MOUNTAIN  CLOUDY    54  48  80 SW8       29.63R
HOUGHTON       LGT RAIN  49  47  93 W15       29.56S FOG
COPPER HARBOR    N/A     44  43  96 W3        29.56R
IRONWOOD       CLOUDY    52  49  89 W14       29.63S
$$

ABBREVIATIONS USED IN REMARKS
   TC - TEMPERATURE IN CELSIUS
  WCI - WIND CHILL INDEX
   HX - HEAT INDEX
  VSB - VISIBILITY





USA.gov is the U.S. government's official web portal to all federal, state and local government web resources and services.